Weather History for KFKL - January, 2014

Change the Weather History Date:

Saturday, January 25, 2014

  Actual Average Record
Temperature  
Mean Temperature 16 °F -  
Max Temperature 23 °F 36 °F 62 °F (1950)
Min Temperature 8 °F 16 °F -13 °F (1945)
Degree Days  
Heating Degree Days 50    
Moisture  
Dew Point 10 °F    
Average Humidity 75    
Maximum Humidity 86    
Minimum Humidity 45    
Precipitation  
Precipitation 0.00 in - - ()
Sea Level Pressure  
Sea Level Pressure 29.45 in    
Wind  
Wind Speed 15 mph (SW)    
Max Wind Speed 23 mph    
Max Gust Speed 34 mph    
Visibility 4 miles    
Events      
Averages and records for this station are not official NWS values.
T = Trace of Precipitation, MM = Missing Value Source: NWS Daily Summary

Daily Weather History Graph

Daily Weather History Graph

Search for Another Location

Airport or City:

Trip Planner

Search our weather history database for the weather conditions in past years. The results will help you decide how hot, cold, wet, or windy it might be!

Date:

Astronomy

Jan. 25, 2014 Rise Set
Actual Time 7:37 AM EST 5:26 PM EST
Civil Twilight 7:07 AM EST 5:56 PM EST
Nautical Twilight 6:33 AM EST 6:30 PM EST
Astronomical Twilight 6:01 AM EST 7:03 PM EST
Moon 2:07 AM EST (1/25) 12:26 PM EST (1/25)
Length of Visible Light 10h 49m
Length of Day
9h 49m
Waning Crescent, 34% of the Moon is Illuminated
Jan 25
Waning Crescent
Jan 30
New
Feb 6
First Quarter
Feb 14
Full
Feb 22
Last Quarter

Hourly Weather History & Observations

Time (EST) Temp. Windchill Dew Point Humidity Pressure Visibility Wind Dir Wind Speed Gust Speed Precip Events Conditions
12:15 AM 15.8 °F -0.2 °F -0.4 °F 49% 29.69 in 10.0 mi SSW 17.3 mph 23.0 mph N/A   Overcast
12:35 AM 15.8 °F 0.3 °F -0.4 °F 49% 29.67 in 10.0 mi SSW 16.1 mph 21.9 mph N/A   Overcast
12:55 AM 15.8 °F -1.9 °F -2.2 °F 45% 29.65 in 10.0 mi SSW 21.9 mph 28.8 mph N/A   Overcast
1:15 AM 15.8 °F -0.6 °F -0.4 °F 49% 29.64 in 10.0 mi SSW 18.4 mph 26.5 mph N/A   Overcast
1:35 AM 15.8 °F 1.4 °F -0.4 °F 49% 29.62 in 10.0 mi SSW 13.8 mph 21.9 mph N/A   Overcast
1:55 AM 15.8 °F 3.4 °F -0.4 °F 49% 29.62 in 10.0 mi SSW 10.4 mph 19.6 mph N/A   Overcast
2:15 AM 15.8 °F 0.9 °F 1.4 °F 53% 29.61 in 10.0 mi SW 15.0 mph 21.9 mph N/A   Overcast
2:35 AM 15.8 °F -0.6 °F 3.2 °F 58% 29.61 in 3.0 mi SW 18.4 mph 25.3 mph N/A   Overcast
2:55 AM 15.8 °F -0.6 °F 6.8 °F 68% 29.59 in 2.0 mi SSW 18.4 mph 29.9 mph N/A   Overcast
3:15 AM 15.8 °F -0.6 °F 8.6 °F 73% 29.58 in 3.0 mi SSW 18.4 mph 25.3 mph N/A   Overcast
3:35 AM 15.8 °F -0.6 °F 8.6 °F 73% 29.56 in 2.0 mi SSW 18.4 mph 24.2 mph N/A   Overcast
3:55 AM 15.8 °F -0.6 °F 8.6 °F 73% 29.55 in 2.0 mi SSW 18.4 mph 24.2 mph N/A   Overcast
4:15 AM 15.8 °F 0.3 °F 8.6 °F 73% 29.54 in 2.0 mi SSW 16.1 mph 23.0 mph N/A   Overcast
4:35 AM 15.8 °F -0.6 °F 8.6 °F 73% 29.52 in 2.0 mi SSW 18.4 mph 25.3 mph N/A   Overcast
4:55 AM 15.8 °F 0.3 °F 10.4 °F 79% 29.51 in 2.5 mi SSW 16.1 mph - N/A   Overcast
5:15 AM 15.8 °F -1.1 °F 10.4 °F 79% 29.50 in 2.0 mi SSW 19.6 mph 26.5 mph N/A   Overcast
5:35 AM 15.8 °F -1.5 °F 10.4 °F 79% 29.49 in 1.8 mi South 20.7 mph 27.6 mph N/A   Overcast
5:55 AM 15.8 °F -0.6 °F 10.4 °F 79% 29.48 in 1.5 mi SSW 18.4 mph 25.3 mph N/A   Overcast
6:15 AM 15.8 °F -0.2 °F 10.4 °F 79% 29.47 in 1.5 mi SSW 17.3 mph 25.3 mph N/A   Overcast
6:35 AM 15.8 °F -1.1 °F 10.4 °F 79% 29.46 in 1.5 mi SSW 19.6 mph 26.5 mph N/A   Overcast
6:55 AM 15.8 °F -1.5 °F 10.4 °F 79% 29.45 in 1.2 mi SSW 20.7 mph 34.5 mph N/A   Overcast
7:15 AM 17.6 °F 1.7 °F 10.4 °F 73% 29.45 in 1.5 mi SSW 18.4 mph 24.2 mph N/A   Overcast
7:35 AM 17.6 °F 0.1 °F 12.2 °F 79% 29.43 in 1.5 mi SSW 23.0 mph 27.6 mph N/A   Overcast
7:55 AM 17.6 °F 2.2 °F 12.2 °F 79% 29.42 in 1.2 mi SSW 17.3 mph 29.9 mph N/A   Overcast
8:15 AM 17.6 °F 3.2 °F 12.2 °F 79% 29.41 in 1.0 mi SSW 15.0 mph 27.6 mph N/A   Overcast
8:35 AM 17.6 °F 2.7 °F 12.2 °F 79% 29.41 in 1.0 mi SSW 16.1 mph 27.6 mph N/A   Overcast
8:55 AM 17.6 °F 3.7 °F 12.2 °F 79% 29.40 in 1.0 mi SSW 13.8 mph 27.6 mph N/A   Overcast
9:15 AM 17.6 °F 4.3 °F 12.2 °F 79% 29.39 in 0.8 mi SSW 12.7 mph 25.3 mph N/A   Overcast
9:35 AM 17.6 °F 2.2 °F 12.2 °F 79% 29.38 in 1.0 mi SSW 17.3 mph 23.0 mph N/A   Overcast
9:55 AM 17.6 °F 2.7 °F 12.2 °F 79% 29.38 in 1.2 mi SSW 16.1 mph 25.3 mph N/A   Overcast
10:15 AM 17.6 °F 3.2 °F 12.2 °F 79% 29.37 in 1.0 mi SSW 15.0 mph 24.2 mph N/A   Overcast
10:35 AM 19.4 °F 3.6 °F 12.2 °F 74% 29.37 in 0.8 mi SSW 19.6 mph 26.5 mph N/A   Overcast
10:55 AM 19.4 °F 4.1 °F 14.0 °F 80% 29.36 in 1.0 mi SW 18.4 mph 28.8 mph N/A   Overcast
11:15 AM 19.4 °F 4.5 °F 14.0 °F 80% 29.35 in 1.0 mi SSW 17.3 mph 26.5 mph N/A   Overcast
11:35 AM 19.4 °F 6.0 °F 15.8 °F 86% 29.34 in 1.2 mi SW 13.8 mph 24.2 mph N/A   Overcast
11:55 AM 19.4 °F 5.0 °F 14.0 °F 80% 29.33 in 1.8 mi SSW 16.1 mph 21.9 mph N/A   Overcast
12:15 PM 19.4 °F 5.5 °F 15.8 °F 86% 29.32 in 1.5 mi SW 15.0 mph 23.0 mph N/A   Overcast
12:35 PM 19.4 °F 7.9 °F 15.8 °F 86% 29.30 in 0.8 mi SW 10.4 mph 21.9 mph N/A   Overcast
12:55 PM 21.2 °F 7.3 °F 15.8 °F 80% 29.29 in 1.0 mi SW 16.1 mph 21.9 mph N/A   Overcast
1:15 PM 21.2 °F 8.3 °F 15.8 °F 80% 29.28 in 1.2 mi SSW 13.8 mph 21.9 mph N/A   Overcast
1:35 PM 21.2 °F 8.9 °F 17.6 °F 86% 29.27 in 1.0 mi SW 12.7 mph 19.6 mph N/A   Overcast
1:55 PM 21.2 °F 8.3 °F 15.8 °F 80% 29.27 in 1.2 mi SW 13.8 mph 20.7 mph N/A   Overcast
2:15 PM 21.2 °F 8.9 °F 15.8 °F 80% 29.26 in 1.5 mi SW 12.7 mph 19.6 mph N/A   Overcast
2:35 PM 21.2 °F 8.9 °F 17.6 °F 86% 29.26 in 1.2 mi SW 12.7 mph 21.9 mph N/A   Overcast
2:55 PM 21.2 °F 8.9 °F 17.6 °F 86% 29.27 in 1.5 mi SW 12.7 mph 19.6 mph N/A   Overcast
3:15 PM 21.2 °F 8.9 °F 17.6 °F 86% 29.27 in 5.0 mi WSW 12.7 mph 20.7 mph N/A   Overcast
3:35 PM 23.0 °F 11.1 °F 15.8 °F 74% 29.28 in 5.0 mi SW 12.7 mph 16.1 mph N/A   Overcast
3:55 PM 23.0 °F 13.9 °F 17.6 °F 80% 29.28 in 5.0 mi SW 8.1 mph - N/A   Overcast
4:15 PM 23.0 °F 13.1 °F 17.6 °F 80% 29.28 in 10.0 mi SSW 9.2 mph - N/A   Overcast
4:35 PM 23.0 °F 13.9 °F 17.6 °F 80% 29.30 in 1.8 mi West 8.1 mph - N/A   Overcast
4:55 PM 21.2 °F 9.5 °F 17.6 °F 86% 29.33 in 0.5 mi NW 11.5 mph 19.6 mph N/A   Overcast
5:15 PM 17.6 °F 6.4 °F 14.0 °F 86% 29.36 in 1.8 mi NW 9.2 mph - N/A   Overcast
5:35 PM 15.8 °F 3.4 °F 10.4 °F 79% 29.38 in 5.0 mi WNW 10.4 mph 19.6 mph N/A   Overcast
5:55 PM 15.8 °F 5.1 °F 8.6 °F 73% 29.41 in 7.0 mi WNW 8.1 mph 18.4 mph N/A   Overcast
6:15 PM 15.8 °F 4.2 °F 8.6 °F 73% 29.43 in 5.0 mi NNW 9.2 mph 17.3 mph N/A   Overcast
6:35 PM 14.0 °F 0.5 °F 6.8 °F 73% 29.46 in 7.0 mi NW 11.5 mph 19.6 mph N/A   Overcast
6:55 PM 12.2 °F 2.9 °F 5.0 °F 73% 29.47 in 10.0 mi NW 5.8 mph 19.6 mph N/A   Scattered Clouds
7:15 PM 12.2 °F 0.7 °F 5.0 °F 73% 29.48 in 7.0 mi NW 8.1 mph - N/A   Mostly Cloudy
7:35 PM 12.2 °F 2.9 °F 6.8 °F 79% 29.49 in 4.0 mi WNW 5.8 mph - N/A   Overcast
7:55 PM 12.2 °F 0.7 °F 6.8 °F 79% 29.50 in 10.0 mi NW 8.1 mph - N/A   Mostly Cloudy
8:15 PM 12.2 °F 0.7 °F 6.8 °F 79% 29.52 in 10.0 mi NW 8.1 mph - N/A   Mostly Cloudy
8:35 PM 10.4 °F -0.4 °F 3.2 °F 73% 29.53 in 10.0 mi NW 6.9 mph - N/A   Overcast
8:55 PM 10.4 °F -0.4 °F 6.8 °F 85% 29.54 in 5.0 mi WNW 6.9 mph - N/A   Overcast
9:15 PM 10.4 °F -0.4 °F 6.8 °F 85% 29.55 in 2.5 mi WNW 6.9 mph - N/A   Overcast
9:35 PM 10.4 °F -1.5 °F 6.8 °F 85% 29.56 in 2.5 mi WNW 8.1 mph 16.1 mph N/A   Overcast
9:55 PM 10.4 °F -1.5 °F 3.2 °F 73% 29.57 in 4.0 mi WNW 8.1 mph - N/A   Overcast
10:15 PM 10.4 °F -4.1 °F 3.2 °F 73% 29.58 in 3.0 mi WNW 11.5 mph - N/A   Overcast
10:35 PM 10.4 °F -3.3 °F 5.0 °F 79% 29.59 in 2.0 mi WNW 10.4 mph - N/A   Overcast
10:55 PM 10.4 °F 0.8 °F 3.2 °F 73% 29.60 in 2.0 mi WNW 5.8 mph - N/A   Overcast
11:15 PM 10.4 °F -1.5 °F 5.0 °F 79% 29.61 in 1.2 mi WNW 8.1 mph - N/A   Overcast
11:35 PM 8.6 °F -3.7 °F 1.4 °F 73% 29.62 in 5.0 mi WNW 8.1 mph 17.3 mph N/A   Overcast
11:55 PM 8.6 °F -4.7 °F -0.4 °F 67% 29.63 in 10.0 mi West 9.2 mph 19.6 mph N/A   Mostly Cloudy